�������l�o���
Date,Time,MP-1(��Sv/h),MP-2(��Sv/h),MP-3(��Sv/h),MP-4(��Sv/h),MP-5(��Sv/h),MP-6(��Sv/h),MP-7(��Sv/h),MP-8(��Sv/h),����,����(m/s),���J
2018/12/15,00:00,0.764,1.147,0.803,1.458,1.032,0.445,0.789,0.750,���k��,1.7,��
2018/12/15,00:10,0.762,1.149,0.802,1.457,1.034,0.443,0.788,0.751,��,3.1,��
2018/12/15,00:20,0.763,1.148,0.802,1.457,1.034,0.444,0.790,0.750,���k��,3.2,��
2018/12/15,00:30,0.765,1.147,0.801,1.456,1.034,0.445,0.790,0.748,��,3.4,��
2018/12/15,00:40,0.764,1.146,0.802,1.457,1.033,0.445,0.789,0.750,��,3.8,��
2018/12/15,00:50,0.766,1.147,0.803,1.455,1.033,0.445,0.790,0.748,��,4.8,��
2018/12/15,01:00,0.763,1.148,0.801,1.457,1.032,0.445,0.788,0.748,��,5.7,��
2018/12/15,01:10,0.763,1.147,0.800,1.460,1.035,0.444,0.790,0.750,��,7.1,��
2018/12/15,01:20,0.764,1.147,0.800,1.457,1.034,0.445,0.788,0.750,��,7.2,��
2018/12/15,01:30,0.764,1.147,0.801,1.456,1.032,0.445,0.789,0.749,���k��,7.7,��
2018/12/15,01:40,0.766,1.149,0.801,1.455,1.033,0.446,0.789,0.751,��,7.1,��
2018/12/15,01:50,0.763,1.146,0.800,1.458,1.032,0.446,0.791,0.749,���k��,5.4,��
2018/12/15,02:00,0.760,1.147,0.802,1.458,1.033,0.446,0.789,0.750,���k��,4.5,��
2018/12/15,02:10,0.764,1.147,0.802,1.458,1.031,0.446,0.790,0.751,���k��,4.1,��
2018/12/15,02:20,0.762,1.149,0.803,1.457,1.033,0.445,0.789,0.750,���k��,4.2,��
2018/12/15,02:30,0.765,1.147,0.801,1.457,1.034,0.445,0.789,0.751,���k��,3.8,��
2018/12/15,02:40,0.763,1.147,0.800,1.457,1.033,0.445,0.787,0.750,��,4.5,��
2018/12/15,02:50,0.763,1.147,0.803,1.459,1.032,0.446,0.789,0.749,��,4.2,��
2018/12/15,03:00,0.763,1.147,0.802,1.458,1.031,0.444,0.789,0.750,��,5.6,��
2018/12/15,03:10,0.764,1.146,0.801,1.457,1.031,0.445,0.788,0.751,���k��,5.6,��
2018/12/15,03:20,0.761,1.148,0.802,1.457,1.032,0.445,0.788,0.750,��,4.6,��
2018/12/15,03:30,0.763,1.149,0.802,1.457,1.031,0.444,0.789,0.750,��,3.1,��
2018/12/15,03:40,0.762,1.149,0.802,1.457,1.033,0.445,0.791,0.750,�k��,3.4,��
2018/12/15,03:50,0.762,1.147,0.801,1.461,1.034,0.444,0.789,0.750,�k��,4.2,��
2018/12/15,04:00,0.764,1.148,0.803,1.457,1.033,0.443,0.788,0.749,�k��,6.5,��
2018/12/15,04:10,0.764,1.148,0.802,1.457,1.032,0.445,0.791,0.748,�k��,5.5,��
2018/12/15,04:20,0.765,1.149,0.802,1.457,1.036,0.445,0.788,0.749,�k��,4.9,��
2018/12/15,04:30,0.764,1.148,0.802,1.460,1.031,0.445,0.791,0.750,�k��,4.3,��
2018/12/15,04:40,0.765,1.147,0.801,1.458,1.032,0.446,0.789,0.748,�k��,5.5,��
2018/12/15,04:50,0.764,1.148,0.804,1.456,1.032,0.444,0.791,0.751,���k��,5.6,��
2018/12/15,05:00,0.764,1.148,0.802,1.459,1.033,0.445,0.789,0.750,���k��,5.1,��
2018/12/15,05:10,0.766,1.147,0.802,1.458,1.030,0.445,0.789,0.749,�k��,5.2,��
2018/12/15,05:20,0.762,1.148,0.802,1.458,1.032,0.443,0.790,0.749,�k��,6.3,��
2018/12/15,05:30,0.762,1.148,0.802,1.456,1.033,0.445,0.788,0.750,�k��,4.9,��
2018/12/15,05:40,0.762,1.146,0.802,1.460,1.034,0.444,0.788,0.750,�k��,2.8,��
2018/12/15,05:50,0.763,1.146,0.803,1.460,1.030,0.446,0.789,0.749,�k��,1.2,��
2018/12/15,06:00,0.763,1.147,0.800,1.455,1.032,0.445,0.790,0.750,�k��,2.2,��
2018/12/15,06:10,0.764,1.145,0.803,1.458,1.034,0.445,0.789,0.747,���k��,2.3,��
2018/12/15,06:20,0.764,1.149,0.802,1.458,1.032,0.444,0.789,0.751,���k��,1.7,��
2018/12/15,06:30,0.763,1.147,0.802,1.458,1.031,0.446,0.790,0.750,���k��,2.3,��
2018/12/15,06:40,0.763,1.147,0.802,1.458,1.034,0.443,0.788,0.750,���k��,2.8,��
2018/12/15,06:50,0.764,1.146,0.800,1.456,1.031,0.445,0.790,0.751,���k��,3.2,��
2018/12/15,07:00,0.764,1.146,0.802,1.459,1.034,0.444,0.790,0.749,���k��,3.4,��
2018/12/15,07:10,0.764,1.147,0.803,1.457,1.032,0.444,0.788,0.750,���k��,3.5,��
2018/12/15,07:20,0.763,1.149,0.804,1.457,1.033,0.444,0.789,0.750,�k��,3.9,��
2018/12/15,07:30,0.765,1.147,0.802,1.457,1.032,0.445,0.789,0.749,�k��,4.8,��
2018/12/15,07:40,0.763,1.148,0.801,1.457,1.034,0.444,0.787,0.750,�k��,4.9,��
2018/12/15,07:50,0.764,1.146,0.802,1.457,1.032,0.443,0.790,0.750,�k��,4.5,��
2018/12/15,08:00,0.765,1.148,0.801,1.458,1.032,0.445,0.789,0.749,�k��,4.3,��
2018/12/15,08:10,0.764,1.148,0.802,1.458,1.033,0.443,0.789,0.750,�k��,4.5,��
2018/12/15,08:20,0.763,1.147,0.802,1.456,1.032,0.444,0.790,0.749,�k��,4.5,��
2018/12/15,08:30,0.763,1.146,0.801,1.459,1.034,0.443,0.790,0.749,�k��,2.9,��
2018/12/15,08:40,0.764,1.146,0.802,1.456,1.032,0.446,0.788,0.750,�k��,2.9,��
2018/12/15,08:50,0.765,1.148,0.802,1.458,1.030,0.445,0.790,0.749,�k��,2.3,��
2018/12/15,09:00,0.763,1.148,0.802,1.459,1.032,0.445,0.789,0.749,�k�k��,1.7,��
2018/12/15,09:10,0.765,1.148,0.800,1.459,1.034,0.444,0.790,0.749,�k�k��,2.0,��
2018/12/15,09:20,0.765,1.146,0.803,1.458,1.034,0.445,0.791,0.750,�k�k��,2.3,��
2018/12/15,09:30,0.767,1.148,0.803,1.458,1.034,0.445,0.792,0.751,�k�k��,2.9,��
2018/12/15,09:40,0.765,1.145,0.804,1.461,1.035,0.445,0.789,0.749,�k,3.0,��
2018/12/15,09:50,0.766,1.145,0.801,1.458,1.036,0.445,0.791,0.750,�k,2.0,��
2018/12/15,10:00,0.765,1.142,0.803,1.460,1.035,0.444,0.793,0.750,�k,2.3,��
2018/12/15,10:10,0.766,1.145,0.804,1.458,1.035,0.446,0.790,0.750,�k�k��,3.1,��
2018/12/15,10:20,0.767,1.147,0.803,1.460,1.035,0.446,0.791,0.749,�k,1.7,��
2018/12/15,10:30,0.767,1.147,0.805,1.459,1.035,0.448,0.791,0.750,���k��,2.0,��
2018/12/15,10:40,0.768,1.146,0.804,1.459,1.035,0.444,0.791,0.750,�k�k��,3.0,��
2018/12/15,10:50,0.768,1.148,0.802,1.461,1.037,0.447,0.789,0.750,�k��,2.9,�L
2018/12/15,11:00,0.765,1.146,0.804,1.461,1.035,0.445,0.789,0.751,�k��,3.1,�L
2018/12/15,11:10,0.766,1.146,0.802,1.460,1.038,0.446,0.789,0.750,�k��,3.4,��
2018/12/15,11:20,0.767,1.148,0.806,1.460,1.038,0.445,0.787,0.750,���k��,3.6,��
2018/12/15,11:30,0.768,1.147,0.802,1.458,1.038,0.445,0.787,0.751,��,3.8,��
2018/12/15,11:40,0.768,1.150,0.805,1.461,1.035,0.447,0.789,0.751,��,3.8,��
2018/12/15,11:50,0.766,1.149,0.804,1.459,1.035,0.446,0.790,0.750,��,3.8,��
2018/12/15,12:00,0.767,1.151,0.803,1.459,1.036,0.446,0.789,0.750,���k��,4.3,��
2018/12/15,12:10,0.766,1.150,0.804,1.461,1.037,0.444,0.792,0.750,���k��,4.2,��
2018/12/15,12:20,0.767,1.149,0.804,1.462,1.038,0.446,0.791,0.751,��,5.1,��
2018/12/15,12:30,0.768,1.150,0.804,1.462,1.038,0.446,0.790,0.751,��,5.5,��
2018/12/15,12:40,0.766,1.147,0.803,1.460,1.036,0.446,0.790,0.751,��,4.9,��
2018/12/15,12:50,0.766,1.146,0.806,1.460,1.036,0.446,0.791,0.749,��,4.3,��
2018/12/15,13:00,0.767,1.148,0.805,1.464,1.039,0.447,0.790,0.750,���k��,4.9,��
2018/12/15,13:10,0.767,1.147,0.804,1.462,1.039,0.446,0.792,0.751,��,4.3,�L
2018/12/15,13:20,0.768,1.149,0.804,1.461,1.038,0.446,0.790,0.750,�k��,4.8,�L
2018/12/15,13:30,0.769,1.146,0.804,1.458,1.040,0.448,0.792,0.752,�k��,5.7,��
2018/12/15,13:40,0.767,1.148,0.805,1.460,1.039,0.447,0.789,0.752,�k��,5.6,��
2018/12/15,13:50,0.769,1.147,0.804,1.459,1.038,0.447,0.793,0.751,�k��,5.0,��
2018/12/15,14:00,0.767,1.148,0.806,1.462,1.040,0.447,0.792,0.752,�k��,5.4,��
2018/12/15,14:10,0.768,1.147,0.804,1.460,1.038,0.447,0.791,0.752,�k��,6.9,��
2018/12/15,14:20,0.769,1.149,0.805,1.463,1.038,0.448,0.792,0.750,���k��,4.6,��
2018/12/15,14:30,0.768,1.148,0.805,1.463,1.039,0.445,0.792,0.752,���k��,6.5,��
2018/12/15,14:40,0.768,1.151,0.805,1.460,1.037,0.448,0.793,0.749,�k��,5.6,��
2018/12/15,14:50,0.766,1.151,0.807,1.463,1.039,0.447,0.792,0.750,���k��,6.1,��
2018/12/15,15:00,0.768,1.150,0.804,1.459,1.039,0.446,0.792,0.752,���k��,5.8,��
2018/12/15,15:10,0.768,1.149,0.802,1.462,1.036,0.447,0.792,0.749,���k��,6.0,��
2018/12/15,15:20,0.767,1.151,0.805,1.460,1.036,0.446,0.791,0.752,���k��,5.8,��
2018/12/15,15:30,0.769,1.152,0.803,1.463,1.037,0.446,0.793,0.751,���k��,6.2,��
2018/12/15,15:40,0.766,1.152,0.804,1.464,1.039,0.447,0.791,0.751,���k��,5.9,��
2018/12/15,15:50,0.767,1.153,0.805,1.463,1.037,0.446,0.790,0.751,���k��,6.5,��
2018/12/15,16:00,0.768,1.154,0.806,1.460,1.039,0.447,0.792,0.749,���k��,6.4,��
2018/12/15,16:10,0.765,1.152,0.805,1.463,1.038,0.447,0.792,0.750,���k��,4.8,��
2018/12/15,16:20,0.767,1.151,0.804,1.461,1.036,0.446,0.790,0.752,���k��,6.0,��
2018/12/15,16:30,0.766,1.151,0.804,1.465,1.037,0.448,0.793,0.751,���k��,5.9,��
2018/12/15,16:40,0.768,1.153,0.805,1.461,1.037,0.447,0.791,0.751,�k��,6.1,��
2018/12/15,16:50,0.768,1.153,0.805,1.462,1.037,0.446,0.791,0.751,�k��,5.3,��
2018/12/15,17:00,0.767,1.156,0.805,1.460,1.036,0.448,0.791,0.751,���k��,4.5,��
2018/12/15,17:10,0.767,1.151,0.806,1.461,1.037,0.447,0.794,0.751,�k��,5.0,��
2018/12/15,17:20,0.766,1.151,0.804,1.462,1.036,0.447,0.792,0.751,���k��,3.1,��
2018/12/15,17:30,0.766,1.152,0.806,1.462,1.039,0.447,0.791,0.749,��,1.4,��
2018/12/15,17:40,0.766,1.151,0.804,1.461,1.039,0.445,0.790,0.751,���k��,2.3,��
2018/12/15,17:50,0.768,1.150,0.803,1.460,1.038,0.445,0.792,0.750,���k��,2.6,��
2018/12/15,18:00,0.765,1.153,0.804,1.461,1.038,0.445,0.791,0.752,���k��,2.3,��
2018/12/15,18:10,0.765,1.152,0.805,1.461,1.037,0.446,0.790,0.749,���k��,2.3,��
2018/12/15,18:20,0.765,1.152,0.804,1.459,1.040,0.446,0.789,0.748,���k��,1.5,��
2018/12/15,18:30,0.764,1.153,0.806,1.460,1.036,0.445,0.789,0.751,���k��,1.1,��
2018/12/15,18:40,0.766,1.152,0.802,1.461,1.038,0.446,0.791,0.751,�쐼,0.8,��
2018/12/15,18:50,0.766,1.152,0.803,1.459,1.038,0.445,0.789,0.750,���쐼,0.9,��
2018/12/15,19:00,0.768,1.152,0.803,1.462,1.037,0.447,0.789,0.749,��쐼,1.5,��
2018/12/15,19:10,0.766,1.150,0.804,1.460,1.037,0.446,0.789,0.750,��쐼,2.0,��
2018/12/15,19:20,0.765,1.152,0.802,1.461,1.036,0.446,0.789,0.750,�쐼,1.7,��
2018/12/15,19:30,0.766,1.152,0.801,1.460,1.039,0.446,0.788,0.749,��쐼,0.9,��
2018/12/15,19:40,0.766,1.149,0.802,1.463,1.038,0.446,0.789,0.749,��쐼,1.5,��
2018/12/15,19:50,0.767,1.152,0.803,1.462,1.038,0.445,0.789,0.750,�쐼,1.9,��
2018/12/15,20:00,0.764,1.153,0.803,1.460,1.035,0.446,0.789,0.751,�쐼,2.3,��
2018/12/15,20:10,0.765,1.151,0.803,1.460,1.037,0.445,0.788,0.750,�쐼,2.6,��
2018/12/15,20:20,0.768,1.152,0.803,1.461,1.037,0.446,0.789,0.750,���쐼,2.5,��
2018/12/15,20:30,0.765,1.153,0.802,1.460,1.036,0.446,0.789,0.750,��,3.2,��
2018/12/15,20:40,0.765,1.149,0.803,1.461,1.035,0.445,0.788,0.748,��,4.1,��
2018/12/15,20:50,0.764,1.152,0.803,1.458,1.037,0.444,0.789,0.749,���쐼,2.8,��
2018/12/15,21:00,0.766,1.150,0.802,1.459,1.035,0.445,0.789,0.748,���쐼,3.2,��
2018/12/15,21:10,0.765,1.150,0.803,1.462,1.035,0.445,0.790,0.750,���쐼,3.0,��
2018/12/15,21:20,0.768,1.149,0.804,1.460,1.037,0.446,0.789,0.750,��,3.1,��
2018/12/15,21:30,0.766,1.151,0.802,1.461,1.035,0.445,0.788,0.749,��,2.0,��
2018/12/15,21:40,0.765,1.152,0.802,1.462,1.036,0.445,0.789,0.749,���k��,2.9,��
2018/12/15,21:50,0.765,1.151,0.804,1.461,1.036,0.446,0.790,0.750,���k��,2.9,��
2018/12/15,22:00,0.764,1.151,0.803,1.461,1.036,0.446,0.790,0.749,���k��,2.5,��
2018/12/15,22:10,0.766,1.150,0.802,1.462,1.036,0.445,0.789,0.748,���k��,2.6,��
2018/12/15,22:20,0.765,1.149,0.803,1.461,1.037,0.444,0.788,0.749,���k��,3.4,��
2018/12/15,22:30,0.765,1.150,0.801,1.461,1.036,0.445,0.787,0.749,���k��,3.8,��
2018/12/15,22:40,0.765,1.149,0.802,1.461,1.036,0.445,0.789,0.750,���k��,3.5,��
2018/12/15,22:50,0.764,1.152,0.801,1.461,1.037,0.445,0.788,0.750,��,2.8,��
2018/12/15,23:00,0.765,1.150,0.803,1.459,1.035,0.446,0.789,0.750,���쐼,2.3,��
2018/12/15,23:10,0.766,1.150,0.802,1.460,1.035,0.444,0.788,0.749,���쐼,2.0,��
2018/12/15,23:20,0.764,1.149,0.801,1.459,1.035,0.445,0.789,0.750,�쐼,2.3,��
2018/12/15,23:30,0.765,1.152,0.802,1.462,1.036,0.443,0.788,0.750,�쐼,3.8,��
2018/12/15,23:40,0.764,1.152,0.802,1.460,1.035,0.445,0.789,0.750,��쐼,4.6,��
2018/12/15,23:50,0.763,1.150,0.803,1.461,1.037,0.444,0.789,0.750,��쐼,4.7,��
